QPF
0.00 0.00 0.00 0.00 0.00 0.01 0.01 0.00 0.00 0.00 0.00 0.00 0.00 0.00 0.00 0.00 0.01 0.03 0.00 0.00 0.00 0.00 0.00 0.00 0.00 0.00 0.00 0.00 0.00 0.00 0.00 0.00 0.00 0.00 0.00 0.00 0.00 0.00 0.00 0.00 0.00 0.00 0.00 0.00 0.00 0.00 0.00 0.00 0.00
0.00 0.00 0.00 0.00 0.00 0.02 0.03 0.00 0.00 0.00 0.00 0.00 0.00 0.00 0.00 0.00 0.00 0.00 0.00 0.00 0.00 0.00 0.00 0.00 0.00 0.00 0.00 0.00 0.00 0.00 0.00 0.00 0.00 0.00 0.00 0.00 0.00 0.00 0.00 0.00 0.00 0.00 0.00 0.00 0.00 0.00 0.00 0.00 0.00
0.00 0.00 0.00 0.00 0.00 0.01 0.02 0.00 0.00 0.00 0.00 0.00 0.00 0.00 0.00 0.00 0.00 0.00 0.00 0.00 0.00 0.00 0.00 0.00 0.00 0.00 0.00 0.00 0.00 0.00 0.00 0.00 0.00 0.00 0.00 0.00 0.00 0.00 0.00 0.00 0.00 0.00 0.00 0.00 0.00 0.00 0.00 0.00 0.00
0.00 0.00 0.00 0.00 0.00 0.00 0.00 0.00 0.00 0.00 0.00 0.00 0.00 0.00 0.00 0.00 0.00 0.00 0.00 0.00 0.00 0.00 0.00 0.00 0.00 0.00 0.00 0.00 0.00 0.00 0.00 0.00 0.00 0.00 0.00 0.00 0.01 0.01 0.00 0.00 0.00 0.00 0.00 0.00 0.00 0.00 0.00 0.00 0.00
0.00 0.00 0.00 0.00 0.00 0.00 0.00 0.00 0.00 0.00 0.00 0.00 0.00 0.00 0.00 0.00 0.00 0.00 0.00 0.00 0.00 0.00 0.00 0.00 0.00 0.00 0.00 0.00 0.00 0.00 0.00 0.00 0.00 0.00 0.00 0.00 0.01 0.01 0.01 0.00 0.00 0.00 0.00 0.00 0.00 0.00 0.00 0.00 0.00
0.00 0.00 0.00 0.00 0.00 0.00 0.00 0.00 0.00 0.00 0.00 0.00 0.00 0.00 0.00 0.00 0.00 0.00 0.00 0.00 0.00 0.00 0.00 0.00 0.00 0.00 0.00 0.00 0.00 0.00 0.00 0.00 0.00 0.00 0.00 0.00 0.00 0.00 0.00 0.00 0.00 0.01 0.02 0.01 0.00 0.00 0.00 0.00 0.00
0.00 0.00 0.00 0.00 0.00 0.00 0.00 0.00 0.00 0.00 0.00 0.00 0.00 0.00 0.00 0.00 0.00 0.00 0.00 0.00 0.00 0.00 0.00 0.00 0.00 0.00 0.00 0.00 0.00 0.00 0.00 0.00 0.00 0.00 0.00 0.00 0.00 0.00 0.00 0.00 0.00 0.01 0.02 0.02 0.02 0.00 0.00 0.00 0.00
0.00 0.00 0.00 0.00 0.00 0.00 0.00 0.00 0.00 0.00 0.00 0.00 0.00 0.00 0.00 0.00 0.00 0.00 0.00 0.00 0.00 0.00 0.00 0.00 0.00 0.00 0.00 0.00 0.00 0.01 0.01 0.01 0.01 0.00 0.00 0.00 0.00 0.00 0.01 0.01 0.01 0.01 0.01 0.02 0.02 0.02 0.02 0.02 0.02
0.00 0.00 0.00 0.00 0.00 0.00 0.00 0.00 0.00 0.00 0.00 0.00 0.00 0.00 0.00 0.00 0.00 0.00 0.00 0.00 0.00 0.00 0.00 0.00 0.00 0.00 0.00 0.00 0.00 0.00 0.00 0.00 0.00 0.01 0.01 0.00 0.01 0.04 0.05 0.07 0.10 0.08 0.04 0.03 0.03 0.04 0.06 0.05 0.02
0.00 0.00 0.00 0.00 0.00 0.00 0.00 0.00 0.00 0.00 0.00 0.00 0.00 0.00 0.00 0.00 0.00 0.00 0.00 0.00 0.00 0.00 0.00 0.00 0.00 0.00 0.00 0.00 0.00 0.00 0.00 0.00 0.00 0.01 0.04 0.03 0.03 0.05 0.03 0.10 0.12 0.08 0.05 0.02 0.02 0.08 0.07 0.02 0.00
0.00 0.00 0.00 0.00 0.00 0.00 0.00 0.00 0.00 0.00 0.00 0.00 0.00 0.00 0.00 0.00 0.00 0.00 0.00 0.00 0.00 0.00 0.00 0.00 0.00 0.00 0.00 0.00 0.00 0.00 0.00 0.01 0.02 0.02 0.02 0.05 0.04 0.04 0.02 0.02 0.04 0.06 0.05 0.04 0.07 0.11 0.03 0.01 0.01
0.00 0.00 0.00 0.00 0.00 0.00 0.00 0.00 0.00 0.00 0.00 0.00 0.00 0.00 0.00 0.00 0.00 0.00 0.00 0.00 0.00 0.00 0.00 0.00 0.00 0.00 0.01 0.01 0.01 0.01 0.02 0.02 0.03 0.06 0.05 0.07 0.05 0.03 0.02 0.02 0.01 0.03 0.04 0.09 0.07 0.06 0.05 0.05 0.02
0.00 0.00 0.00 0.00 0.00 0.00 0.00 0.00 0.00 0.00 0.00 0.00 0.00 0.00 0.00 0.00 0.00 0.00 0.00 0.00 0.00 0.00 0.00 0.00 0.00 0.00 0.01 0.01 0.02 0.01 0.01 0.01 0.01 0.05 0.05 0.05 0.04 0.02 0.02 0.01 0.00 0.01 0.04 0.09 0.08 0.06 0.05 0.05 0.04
0.00 0.00 0.00 0.00 0.00 0.00 0.00 0.00 0.00 0.00 0.00 0.00 0.00 0.00 0.00 0.00 0.00 0.00 0.00 0.00 0.00 0.00 0.00 0.00 0.00 0.00 0.01 0.01 0.01 0.01 0.01 0.01 0.01 0.02 0.03 0.04 0.03 0.03 0.03 0.02 0.01 0.01 0.01 0.01 0.04 0.06 0.07 0.08 0.10
0.00 0.00 0.00 0.00 0.00 0.00 0.00 0.00 0.00 0.00 0.00 0.00 0.00 0.00 0.00 0.00 0.00 0.00 0.00 0.00 0.00 0.00 0.00 0.00 0.00 0.01 0.02 0.02 0.02 0.02 0.01 0.01 0.01 0.01 0.01 0.03 0.05 0.07 0.06 0.06 0.04 0.02 0.03 0.05 0.05 0.05 0.06 0.04 0.04
0.00 0.00 0.00 0.00 0.00 0.00 0.00 0.00 0.00 0.00 0.00 0.00 0.00 0.00 0.00 0.00 0.00 0.00 0.00 0.00 0.00 0.01 0.01 0.01 0.01 0.01 0.03 0.04 0.04 0.02 0.02 0.01 0.01 0.00 0.00 0.02 0.04 0.08 0.11 0.11 0.08 0.08 0.13 0.16 0.16 0.15 0.13 0.09 0.06
0.00 0.00 0.00 0.00 0.00 0.00 0.00 0.00 0.00 0.00 0.00 0.00 0.00 0.00 0.00 0.00 0.00 0.00 0.00 0.00 0.00 0.01 0.02 0.02 0.02 0.03 0.05 0.07 0.06 0.05 0.04 0.03 0.02 0.01 0.00 0.01 0.01 0.02 0.06 0.06 0.09 0.15 0.18 0.20 0.19 0.13 0.13 0.12 0.11
0.00 0.00 0.00 0.00 0.00 0.00 0.00 0.00 0.00 0.00 0.00 0.00 0.00 0.00 0.00 0.00 0.00 0.00 0.00 0.00 0.00 0.01 0.04 0.07 0.09 0.11 0.10 0.08 0.10 0.11 0.12 0.12 0.11 0.08 0.05 0.02 0.01 0.02 0.03 0.02 0.02 0.05 0.09 0.12 0.17 0.18 0.19 0.18 0.18
0.00 0.00 0.00 0.00 0.00 0.00 0.00 0.00 0.00 0.00 0.00 0.00 0.00 0.00 0.00 0.00 0.00 0.00 0.00 0.00 0.01 0.02 0.03 0.05 0.06 0.06 0.05 0.04 0.04 0.08 0.11 0.16 0.19 0.18 0.15 0.11 0.09 0.08 0.08 0.06 0.05 0.04 0.06 0.08 0.09 0.12 0.17 0.18 0.19
0.00 0.00 0.00 0.00 0.00 0.00 0.00 0.00 0.00 0.00 0.00 0.00 0.00 0.00 0.00 0.00 0.00 0.00 0.00 0.00 0.00 0.01 0.01 0.01 0.01 0.01 0.01 0.01 0.02 0.03 0.06 0.09 0.11 0.11 0.12 0.10 0.11 0.12 0.09 0.06 0.06 0.06 0.08 0.11 0.10 0.11 0.15 0.18 0.22
0.00 0.00 0.00 0.00 0.00 0.00 0.00 0.00 0.00 0.00 0.00 0.00 0.00 0.00 0.00 0.00 0.00 0.00 0.00 0.00 0.00 0.00 0.00 0.00 0.00 0.01 0.01 0.00 0.01 0.02 0.03 0.03 0.04 0.04 0.05 0.06 0.09 0.11 0.10 0.07 0.07 0.08 0.10 0.17 0.21 0.23 0.25 0.21 0.22
0.00 0.00 0.00 0.00 0.00 0.00 0.00 0.00 0.00 0.00 0.00 0.00 0.00 0.00 0.00 0.00 0.00 0.00 0.00 0.00 0.00 0.00 0.00 0.00 0.00 0.01 0.01 0.01 0.01 0.02 0.03 0.03 0.03 0.03 0.04 0.05 0.06 0.07 0.06 0.08 0.16 0.19 0.22 0.26 0.26 0.27 0.30 0.28 0.24
0.00 0.00 0.00 0.00 0.00 0.00 0.00 0.00 0.00 0.00 0.00 0.01 0.01 0.01 0.00 0.00 0.00 0.00 0.00 0.00 0.00 0.00 0.00 0.00 0.00 0.00 0.01 0.02 0.02 0.02 0.01 0.01 0.01 0.03 0.04 0.04 0.04 0.03 0.02 0.02 0.06 0.14 0.21 0.26 0.27 0.27 0.29 0.31 0.27
0.00 0.00 0.00 0.00 0.00 0.00 0.00 0.00 0.00 0.00 0.00 0.01 0.02 0.02 0.00 0.00 0.00 0.00 0.00 0.00 0.00 0.00 0.00 0.00 0.00 0.00 0.00 0.01 0.02 0.03 0.02 0.02 0.03 0.04 0.05 0.06 0.05 0.03 0.02 0.01 0.03 0.07 0.09 0.11 0.17 0.19 0.21 0.21 0.20
0.00 0.00 0.00 0.00 0.00 0.00 0.01 0.00 0.00 0.00 0.00 0.00 0.00 0.00 0.00 0.00 0.00 0.00 0.00 0.00 0.00 0.00 0.00 0.00 0.00 0.00 0.00 0.01 0.02 0.03 0.04 0.05 0.05 0.06 0.07 0.07 0.06 0.05 0.04 0.03 0.06 0.11 0.11 0.10 0.12 0.16 0.20 0.21 0.20
0.00 0.00 0.00 0.00 0.00 0.00 0.00 0.00 0.00 0.00 0.00 0.00 0.00 0.00 0.00 0.00 0.00 0.00 0.00 0.00 0.00 0.00 0.00 0.00 0.00 0.00 0.01 0.02 0.03 0.04 0.05 0.06 0.06 0.10 0.13 0.10 0.06 0.05 0.08 0.10 0.11 0.10 0.11 0.13 0.18 0.22 0.23 0.21 0.19
0.00 0.00 0.00 0.00 0.00 0.00 0.00 0.00 0.00 0.00 0.00 0.00 0.00 0.00 0.00 0.00 0.00 0.00 0.00 0.00 0.00 0.00 0.00 0.00 0.00 0.01 0.01 0.01 0.02 0.03 0.04 0.06 0.11 0.14 0.13 0.08 0.05 0.03 0.03 0.06 0.14 0.14 0.15 0.18 0.21 0.23 0.24 0.21 0.20
0.00 0.00 0.00 0.00 0.00 0.00 0.00 0.00 0.00 0.00 0.00 0.00 0.00 0.00 0.00 0.00 0.00 0.00 0.00 0.00 0.00 0.00 0.00 0.00 0.00 0.01 0.00 0.00 0.00 0.02 0.06 0.12 0.17 0.21 0.15 0.08 0.05 0.02 0.01 0.03 0.08 0.09 0.10 0.11 0.16 0.22 0.24 0.24 0.23
0.00 0.00 0.00 0.00 0.00 0.00 0.00 0.00 0.00 0.00 0.00 0.00 0.00 0.00 0.00 0.00 0.00 0.00 0.00 0.00 0.00 0.00 0.00 0.00 0.00 0.01 0.00 0.01 0.01 0.06 0.14 0.17 0.23 0.36 0.32 0.14 0.05 0.02 0.01 0.00 0.01 0.01 0.01 0.01 0.04 0.11 0.13 0.14 0.11
0.00 0.00 0.00 0.00 0.00 0.00 0.00 0.00 0.00 0.00 0.00 0.00 0.00 0.00 0.00 0.00 0.00 0.00 0.00 0.00 0.00 0.00 0.00 0.00 0.00 0.01 0.01 0.00 0.01 0.04 0.14 0.18 0.21 0.26 0.27 0.17 0.10 0.05 0.02 0.00 0.00 0.00 0.01 0.01 0.03 0.04 0.05 0.04 0.03
MSLP
1008.07 1008.64 1009.25 1009.75 1010.02 1009.99 1009.65 1009.08 1008.40 1007.75 1007.27 1007.03 1007.04 1007.25 1007.57 1007.89 1008.13 1008.25 1008.28 1008.30 1008.39 1008.63 1009.08 1009.73 1010.53 1011.37 1012.15 1012.79 1013.23 1013.49 1013.62 1013.69 1013.80 1013.99 1014.29 1014.67 1015.08 1015.45 1015.74 1015.89 1015.93 1015.88 1015.80 1015.74 1015.74 1015.81 1015.93 1016.08 1016.22
1008.19 1008.78 1009.35 1009.78 1009.94 1009.81 1009.38 1008.74 1008.02 1007.37 1006.89 1006.66 1006.66 1006.86 1007.14 1007.44 1007.66 1007.79 1007.87 1007.96 1008.16 1008.53 1009.11 1009.87 1010.75 1011.63 1012.42 1013.04 1013.44 1013.66 1013.75 1013.80 1013.90 1014.09 1014.39 1014.77 1015.17 1015.52 1015.78 1015.92 1015.94 1015.90 1015.83 1015.81 1015.85 1015.97 1016.13 1016.30 1016.44
1008.34 1008.90 1009.40 1009.72 1009.76 1009.51 1008.99 1008.30 1007.58 1006.94 1006.50 1006.31 1006.34 1006.54 1006.83 1007.10 1007.31 1007.45 1007.56 1007.72 1008.00 1008.47 1009.14 1009.98 1010.91 1011.82 1012.60 1013.20 1013.57 1013.77 1013.84 1013.89 1013.98 1014.17 1014.46 1014.82 1015.19 1015.51 1015.73 1015.84 1015.86 1015.82 1015.80 1015.83 1015.93 1016.10 1016.31 1016.51 1016.65
1008.51 1009.01 1009.40 1009.58 1009.48 1009.11 1008.52 1007.81 1007.10 1006.52 1006.15 1006.03 1006.11 1006.35 1006.64 1006.91 1007.12 1007.26 1007.39 1007.59 1007.92 1008.45 1009.17 1010.05 1011.00 1011.90 1012.68 1013.25 1013.62 1013.81 1013.89 1013.95 1014.05 1014.24 1014.52 1014.86 1015.19 1015.46 1015.64 1015.71 1015.72 1015.71 1015.72 1015.81 1015.98 1016.21 1016.46 1016.68 1016.81
1008.67 1009.08 1009.34 1009.37 1009.14 1008.67 1008.02 1007.31 1006.64 1006.14 1005.87 1005.83 1005.98 1006.26 1006.58 1006.85 1007.05 1007.20 1007.34 1007.55 1007.91 1008.46 1009.20 1010.08 1011.01 1011.90 1012.65 1013.21 1013.58 1013.78 1013.88 1013.97 1014.10 1014.30 1014.57 1014.88 1015.16 1015.38 1015.52 1015.56 1015.56 1015.56 1015.61 1015.75 1015.97 1016.25 1016.54 1016.77 1016.89
1008.81 1009.11 1009.23 1009.12 1008.77 1008.22 1007.53 1006.84 1006.24 1005.83 1005.65 1005.71 1005.94 1006.26 1006.60 1006.89 1007.09 1007.24 1007.38 1007.60 1007.95 1008.50 1009.21 1010.06 1010.96 1011.81 1012.53 1013.08 1013.45 1013.67 1013.81 1013.94 1014.10 1014.32 1014.59 1014.87 1015.12 1015.29 1015.38 1015.40 1015.38 1015.39 1015.47 1015.63 1015.89 1016.19 1016.49 1016.72 1016.83
1008.92 1009.09 1009.08 1008.85 1008.40 1007.79 1007.10 1006.44 1005.91 1005.59 1005.50 1005.64 1005.93 1006.30 1006.67 1006.97 1007.18 1007.33 1007.47 1007.69 1008.03 1008.55 1009.23 1010.02 1010.86 1011.66 1012.34 1012.86 1013.23 1013.48 1013.65 1013.82 1014.02 1014.26 1014.53 1014.79 1015.01 1015.15 1015.20 1015.19 1015.16 1015.17 1015.25 1015.42 1015.68 1015.99 1016.28 1016.49 1016.58
1008.98 1009.04 1008.92 1008.59 1008.07 1007.43 1006.75 1006.13 1005.66 1005.42 1005.41 1005.60 1005.94 1006.34 1006.72 1007.03 1007.26 1007.42 1007.58 1007.79 1008.12 1008.60 1009.23 1009.96 1010.72 1011.45 1012.07 1012.56 1012.92 1013.18 1013.38 1013.58 1013.81 1014.07 1014.35 1014.60 1014.79 1014.90 1014.93 1014.90 1014.86 1014.86 1014.93 1015.09 1015.34 1015.62 1015.89 1016.08 1016.14
1008.99 1008.96 1008.75 1008.35 1007.80 1007.15 1006.49 1005.92 1005.50 1005.31 1005.34 1005.57 1005.92 1006.33 1006.73 1007.06 1007.30 1007.49 1007.66 1007.88 1008.20 1008.65 1009.21 1009.86 1010.54 1011.18 1011.74 1012.18 1012.51 1012.77 1012.98 1013.20 1013.44 1013.71 1013.99 1014.23 1014.42 1014.52 1014.54 1014.50 1014.45 1014.44 1014.50 1014.64 1014.86 1015.11 1015.34 1015.49 1015.54
1008.97 1008.87 1008.59 1008.16 1007.59 1006.96 1006.33 1005.80 1005.42 1005.26 1005.30 1005.53 1005.88 1006.29 1006.69 1007.03 1007.30 1007.52 1007.72 1007.95 1008.26 1008.67 1009.17 1009.74 1010.32 1010.87 1011.35 1011.73 1012.02 1012.25 1012.45 1012.67 1012.91 1013.17 1013.44 1013.68 1013.86 1013.97 1013.99 1013.97 1013.93 1013.92 1013.96 1014.08 1014.27 1014.47 1014.67 1014.79 1014.82
1008.91 1008.76 1008.46 1008.01 1007.46 1006.86 1006.27 1005.77 1005.42 1005.26 1005.30 1005.50 1005.83 1006.23 1006.63 1006.98 1007.28 1007.53 1007.75 1008.00 1008.29 1008.66 1009.10 1009.58 1010.08 1010.53 1010.92 1011.23 1011.47 1011.66 1011.83 1012.01 1012.23 1012.47 1012.73 1012.96 1013.15 1013.27 1013.32 1013.32 1013.31 1013.31 1013.36 1013.47 1013.62 1013.79 1013.95 1014.06 1014.08
1008.85 1008.66 1008.35 1007.91 1007.39 1006.83 1006.28 1005.82 1005.49 1005.32 1005.34 1005.52 1005.82 1006.20 1006.59 1006.95 1007.27 1007.54 1007.79 1008.04 1008.31 1008.64 1009.01 1009.41 1009.81 1010.18 1010.49 1010.73 1010.91 1011.05 1011.17 1011.31 1011.48 1011.69 1011.91 1012.13 1012.32 1012.47 1012.56 1012.61 1012.63 1012.67 1012.74 1012.84 1012.98 1013.13 1013.26 1013.35 1013.38
1008.79 1008.58 1008.26 1007.85 1007.37 1006.86 1006.36 1005.94 1005.62 1005.46 1005.46 1005.61 1005.89 1006.24 1006.63 1007.00 1007.34 1007.62 1007.87 1008.11 1008.35 1008.62 1008.92 1009.24 1009.57 1009.86 1010.10 1010.29 1010.41 1010.50 1010.57 1010.65 1010.76 1010.91 1011.09 1011.29 1011.48 1011.65 1011.78 1011.89 1011.97 1012.05 1012.15 1012.26 1012.40 1012.54 1012.66 1012.73 1012.76
1008.75 1008.53 1008.22 1007.84 1007.40 1006.95 1006.50 1006.11 1005.82 1005.67 1005.66 1005.80 1006.07 1006.42 1006.81 1007.19 1007.53 1007.81 1008.04 1008.24 1008.43 1008.63 1008.86 1009.11 1009.37 1009.61 1009.81 1009.96 1010.05 1010.09 1010.11 1010.13 1010.17 1010.25 1010.38 1010.54 1010.72 1010.90 1011.07 1011.23 1011.37 1011.50 1011.63 1011.77 1011.91 1012.05 1012.16 1012.23 1012.25
1008.76 1008.52 1008.23 1007.88 1007.49 1007.09 1006.70 1006.36 1006.10 1005.96 1005.97 1006.11 1006.38 1006.74 1007.14 1007.52 1007.86 1008.12 1008.32 1008.46 1008.58 1008.70 1008.85 1009.03 1009.24 1009.45 1009.63 1009.77 1009.84 1009.86 1009.84 1009.80 1009.77 1009.77 1009.83 1009.93 1010.09 1010.27 1010.47 1010.67 1010.86 1011.04 1011.21 1011.38 1011.52 1011.65 1011.76 1011.82 1011.83
1008.84 1008.59 1008.31 1008.00 1007.66 1007.31 1006.97 1006.66 1006.44 1006.33 1006.35 1006.52 1006.82 1007.19 1007.61 1008.00 1008.32 1008.56 1008.70 1008.77 1008.80 1008.83 1008.90 1009.02 1009.19 1009.39 1009.58 1009.73 1009.81 1009.83 1009.77 1009.68 1009.57 1009.49 1009.47 1009.51 1009.61 1009.78 1009.99 1010.22 1010.45 1010.67 1010.88 1011.06 1011.21 1011.34 1011.43 1011.48 1011.48
1009.00 1008.76 1008.50 1008.22 1007.93 1007.62 1007.31 1007.04 1006.84 1006.75 1006.80 1007.00 1007.32 1007.72 1008.15 1008.55 1008.86 1009.06 1009.14 1009.13 1009.07 1009.02 1009.01 1009.08 1009.22 1009.41 1009.62 1009.80 1009.91 1009.93 1009.86 1009.72 1009.54 1009.38 1009.26 1009.22 1009.28 1009.41 1009.61 1009.86 1010.12 1010.37 1010.60 1010.79 1010.95 1011.07 1011.15 1011.19 1011.17
1009.24 1009.03 1008.81 1008.57 1008.32 1008.04 1007.76 1007.50 1007.30 1007.22 1007.27 1007.48 1007.81 1008.24 1008.69 1009.10 1009.40 1009.56 1009.59 1009.50 1009.36 1009.22 1009.15 1009.16 1009.28 1009.48 1009.71 1009.92 1010.06 1010.09 1010.01 1009.83 1009.59 1009.34 1009.14 1009.02 1009.01 1009.11 1009.29 1009.54 1009.82 1010.09 1010.34 1010.54 1010.70 1010.82 1010.89 1010.92 1010.90
1009.57 1009.41 1009.24 1009.06 1008.85 1008.59 1008.31 1008.03 1007.81 1007.69 1007.71 1007.90 1008.23 1008.66 1009.12 1009.53 1009.83 1009.97 1009.96 1009.82 1009.61 1009.40 1009.27 1009.24 1009.34 1009.54 1009.79 1010.02 1010.18 1010.22 1010.12 1009.90 1009.61 1009.29 1009.01 1008.82 1008.75 1008.81 1008.97 1009.22 1009.51 1009.80 1010.06 1010.28 1010.45 1010.57 1010.64 1010.67 1010.65
1009.95 1009.87 1009.79 1009.68 1009.50 1009.26 1008.96 1008.63 1008.33 1008.14 1008.09 1008.21 1008.50 1008.90 1009.35 1009.77 1010.07 1010.20 1010.17 1010.00 1009.76 1009.51 1009.33 1009.27 1009.35 1009.54 1009.79 1010.03 1010.19 1010.23 1010.12 1009.87 1009.52 1009.14 1008.80 1008.55 1008.44 1008.46 1008.62 1008.87 1009.17 1009.47 1009.76 1009.99 1010.18 1010.31 1010.39 1010.43 1010.43
1010.35 1010.39 1010.41 1010.38 1010.26 1010.02 1009.68 1009.27 1008.86 1008.54 1008.37 1008.39 1008.59 1008.93 1009.35 1009.75 1010.05 1010.20 1010.18 1010.02 1009.77 1009.51 1009.31 1009.23 1009.28 1009.45 1009.69 1009.91 1010.07 1010.09 1009.96 1009.68 1009.29 1008.87 1008.49 1008.20 1008.05 1008.05 1008.20 1008.46 1008.78 1009.11 1009.41 1009.68 1009.88 1010.03 1010.14 1010.21 1010.24
1010.73 1010.90 1011.06 1011.13 1011.06 1010.83 1010.43 1009.92 1009.38 1008.91 1008.57 1008.43 1008.50 1008.74 1009.10 1009.47 1009.78 1009.96 1009.98 1009.85 1009.64 1009.40 1009.20 1009.11 1009.15 1009.29 1009.49 1009.69 1009.82 1009.81 1009.65 1009.35 1008.94 1008.49 1008.09 1007.78 1007.61 1007.61 1007.76 1008.02 1008.36 1008.71 1009.04 1009.32 1009.56 1009.74 1009.88 1009.99 1010.06
1011.04 1011.38 1011.68 1011.86 1011.86 1011.63 1011.18 1010.57 1009.88 1009.23 1008.70 1008.38 1008.29 1008.40 1008.67 1009.00 1009.31 1009.52 1009.60 1009.54 1009.39 1009.20 1009.03 1008.95 1008.97 1009.08 1009.25 1009.41 1009.49 1009.46 1009.27 1008.95 1008.53 1008.08 1007.67 1007.36 1007.19 1007.19 1007.33 1007.60 1007.94 1008.30 1008.64 1008.95 1009.20 1009.41 1009.59 1009.73 1009.86
1011.29 1011.77 1012.21 1012.50 1012.57 1012.36 1011.88 1011.18 1010.35 1009.53 1008.81 1008.30 1008.03 1007.99 1008.16 1008.43 1008.73 1008.97 1009.11 1009.14 1009.07 1008.95 1008.84 1008.78 1008.80 1008.89 1009.01 1009.13 1009.17 1009.10 1008.90 1008.57 1008.16 1007.72 1007.32 1007.02 1006.85 1006.84 1006.98 1007.24 1007.56 1007.91 1008.25 1008.56 1008.82 1009.05 1009.25 1009.43 1009.59
1011.47 1012.08 1012.63 1013.02 1013.14 1012.96 1012.46 1011.70 1010.78 1009.81 1008.93 1008.24 1007.80 1007.62 1007.66 1007.87 1008.14 1008.41 1008.61 1008.72 1008.74 1008.70 1008.66 1008.64 1008.66 1008.74 1008.83 1008.91 1008.92 1008.83 1008.62 1008.30 1007.90 1007.49 1007.11 1006.82 1006.66 1006.64 1006.75 1006.97 1007.26 1007.57 1007.88 1008.16 1008.41 1008.64 1008.84 1009.04 1009.24
1011.61 1012.28 1012.90 1013.36 1013.53 1013.38 1012.89 1012.11 1011.12 1010.06 1009.07 1008.24 1007.65 1007.34 1007.27 1007.40 1007.64 1007.92 1008.17 1008.35 1008.45 1008.50 1008.52 1008.54 1008.59 1008.66 1008.73 1008.78 1008.77 1008.67 1008.46 1008.17 1007.81 1007.43 1007.08 1006.81 1006.65 1006.61 1006.68 1006.84 1007.06 1007.31 1007.55 1007.79 1008.00 1008.20 1008.40 1008.61 1008.82
1011.72 1012.39 1013.03 1013.49 1013.70 1013.57 1013.11 1012.34 1011.35 1010.26 1009.21 1008.30 1007.62 1007.20 1007.03 1007.09 1007.28 1007.55 1007.82 1008.05 1008.23 1008.34 1008.43 1008.49 1008.56 1008.63 1008.70 1008.73 1008.71 1008.62 1008.44 1008.18 1007.87 1007.54 1007.23 1006.98 1006.81 1006.74 1006.76 1006.85 1006.98 1007.14 1007.31 1007.47 1007.62 1007.79 1007.96 1008.16 1008.37
1011.80 1012.41 1012.98 1013.41 1013.60 1013.49 1013.07 1012.35 1011.41 1010.36 1009.32 1008.39 1007.66 1007.18 1006.94 1006.92 1007.06 1007.30 1007.58 1007.83 1008.05 1008.22 1008.35 1008.46 1008.55 1008.63 1008.70 1008.73 1008.72 1008.64 1008.50 1008.29 1008.04 1007.76 1007.50 1007.28 1007.11 1007.01 1006.97 1006.98 1007.03 1007.09 1007.17 1007.25 1007.35 1007.46 1007.60 1007.78 1007.99
1011.85 1012.31 1012.75 1013.08 1013.22 1013.11 1012.73 1012.09 1011.25 1010.29 1009.32 1008.44 1007.73 1007.22 1006.94 1006.86 1006.95 1007.15 1007.40 1007.65 1007.89 1008.09 1008.25 1008.38 1008.49 1008.59 1008.66 1008.71 1008.72 1008.67 1008.58 1008.43 1008.24 1008.03 1007.83 1007.64 1007.48 1007.36 1007.28 1007.23 1007.20 1007.18 1007.17 1007.19 1007.22 1007.29 1007.41 1007.56 1007.76
1011.84 1012.10 1012.35 1012.54 1012.59 1012.46 1012.11 1011.57 1010.85 1010.03 1009.19 1008.40 1007.74 1007.26 1006.96 1006.84 1006.87 1007.02 1007.23 1007.46 1007.68 1007.89 1008.07 1008.22 1008.35 1008.46 1008.55 1008.61 1008.65 1008.64 1008.60 1008.52 1008.41 1008.27 1008.13 1007.99 1007.86 1007.75 1007.64 1007.55 1007.47 1007.39 1007.34 1007.30 1007.30 1007.35 1007.44 1007.59 1007.78
Thickness
5854 5857 5859 5855 5841 5826 5822 5856 5866 5862 5864 5874 5875 5870 5862 5852 5838 5826 5861 5872 5864 5853 5843 5836 5831 5827 5823 5819 5815 5811 5807 5805 5802 5798 5794 5790 5786 5783 5781 5780 5778 5776 5774 5772 5770 5768 5767 5765 5764
5858 5863 5859 5848 5832 5802 5817 5863 5860 5862 5871 5881 5878 5876 5869 5858 5862 5859 5865 5867 5861 5851 5843 5837 5831 5827 5822 5817 5814 5810 5806 5803 5800 5796 5793 5789 5786 5783 5781 5779 5778 5776 5773 5771 5768 5766 5765 5763 5762
5860 5865 5850 5849 5846 5824 5832 5864 5867 5874 5882 5882 5877 5877 5867 5856 5863 5865 5869 5869 5860 5849 5842 5835 5829 5826 5821 5816 5812 5808 5804 5801 5799 5796 5793 5790 5787 5784 5781 5779 5777 5775 5773 5770 5768 5766 5764 5763 5762
5861 5861 5854 5847 5852 5863 5868 5871 5877 5876 5879 5883 5881 5871 5867 5868 5873 5875 5875 5871 5858 5848 5841 5832 5827 5823 5818 5814 5810 5807 5804 5801 5799 5796 5793 5791 5788 5785 5783 5780 5778 5775 5773 5771 5769 5767 5765 5763 5761
5863 5851 5846 5847 5861 5875 5881 5884 5883 5873 5872 5877 5878 5865 5855 5868 5878 5876 5872 5868 5857 5850 5841 5831 5826 5821 5817 5812 5808 5805 5803 5801 5798 5795 5793 5791 5789 5787 5784 5781 5779 5777 5774 5771 5769 5767 5765 5764 5762
5851 5852 5834 5838 5857 5875 5882 5884 5883 5876 5874 5877 5877 5867 5852 5868 5870 5870 5870 5866 5859 5851 5840 5830 5824 5819 5815 5812 5809 5805 5802 5800 5797 5794 5793 5791 5789 5787 5785 5782 5780 5778 5776 5773 5770 5767 5765 5764 5763
5841 5838 5833 5848 5861 5865 5874 5887 5880 5873 5869 5875 5879 5865 5852 5863 5869 5871 5868 5866 5859 5853 5839 5829 5823 5819 5815 5812 5809 5806 5802 5799 5797 5795 5793 5791 5789 5788 5786 5784 5781 5779 5777 5774 5771 5769 5766 5765 5764
5853 5841 5838 5853 5865 5860 5876 5885 5887 5880 5874 5886 5884 5862 5847 5860 5869 5868 5864 5863 5857 5851 5842 5833 5827 5821 5816 5813 5810 5806 5803 5799 5797 5795 5793 5791 5789 5788 5787 5785 5782 5780 5778 5775 5773 5771 5769 5767 5766
5855 5830 5828 5849 5863 5859 5874 5874 5885 5892 5884 5881 5885 5876 5870 5870 5867 5859 5854 5853 5851 5847 5843 5838 5832 5824 5819 5815 5811 5806 5802 5799 5796 5794 5792 5790 5789 5789 5788 5786 5784 5781 5779 5778 5776 5774 5772 5771 5770
5845 5825 5837 5861 5866 5864 5869 5871 5878 5882 5876 5872 5876 5874 5874 5868 5860 5852 5846 5844 5843 5841 5840 5840 5835 5828 5824 5821 5814 5809 5804 5801 5798 5796 5794 5791 5791 5792 5793 5790 5787 5784 5782 5780 5778 5777 5774 5773 5773
5844 5834 5849 5863 5870 5869 5865 5871 5882 5873 5865 5862 5863 5860 5865 5861 5855 5850 5846 5844 5842 5841 5839 5839 5836 5829 5825 5823 5817 5812 5809 5806 5801 5799 5797 5795 5794 5795 5795 5794 5789 5786 5783 5781 5779 5777 5775 5776 5777
5841 5846 5854 5857 5865 5863 5861 5867 5870 5872 5869 5873 5874 5868 5864 5855 5850 5848 5846 5843 5841 5838 5837 5836 5833 5827 5823 5822 5819 5814 5810 5808 5805 5802 5799 5797 5795 5794 5796 5795 5792 5788 5786 5784 5782 5780 5778 5777 5778
5836 5838 5851 5860 5861 5862 5863 5862 5866 5868 5875 5875 5873 5865 5859 5855 5852 5850 5848 5843 5839 5833 5833 5832 5829 5824 5819 5816 5814 5813 5809 5808 5805 5802 5799 5796 5794 5793 5794 5794 5792 5790 5788 5785 5783 5782 5781 5779 5779
5835 5839 5845 5852 5855 5859 5853 5856 5861 5867 5870 5865 5862 5858 5856 5855 5851 5846 5841 5836 5833 5828 5826 5827 5823 5819 5814 5810 5807 5806 5805 5802 5800 5800 5799 5796 5794 5792 5792 5791 5789 5787 5785 5785 5783 5780 5779 5779 5778
5832 5823 5830 5844 5851 5853 5848 5836 5850 5866 5861 5849 5846 5842 5838 5840 5842 5838 5835 5831 5826 5822 5820 5819 5816 5812 5807 5804 5801 5799 5798 5796 5796 5796 5796 5795 5793 5791 5789 5787 5786 5785 5782 5781 5778 5776 5775 5776 5777
5821 5812 5809 5838 5849 5848 5829 5814 5844 5856 5847 5833 5830 5827 5820 5817 5820 5823 5824 5821 5819 5817 5814 5813 5811 5808 5802 5798 5796 5795 5794 5793 5793 5793 5792 5790 5788 5786 5783 5781 5780 5780 5778 5776 5773 5770 5767 5766 5767
5805 5798 5810 5834 5848 5839 5825 5815 5832 5842 5834 5821 5818 5816 5811 5806 5806 5808 5809 5809 5808 5807 5805 5803 5801 5799 5795 5791 5789 5788 5788 5787 5788 5788 5788 5786 5785 5782 5778 5774 5773 5772 5770 5769 5767 5766 5762 5759 5759
5797 5812 5823 5832 5835 5820 5808 5812 5827 5830 5823 5815 5810 5805 5799 5795 5793 5795 5795 5796 5796 5795 5792 5789 5786 5783 5781 5780 5779 5778 5777 5778 5778 5778 5778 5778 5778 5776 5772 5769 5767 5764 5761 5761 5760 5758 5757 5754 5753
5798 5800 5803 5819 5833 5809 5796 5799 5816 5827 5818 5810 5804 5797 5789 5785 5784 5782 5782 5783 5783 5781 5779 5777 5774 5772 5769 5766 5764 5763 5764 5766 5767 5767 5767 5767 5766 5765 5762 5759 5757 5754 5751 5751 5751 5751 5749 5746 5746
5794 5791 5795 5810 5822 5806 5793 5794 5809 5819 5816 5808 5800 5790 5783 5778 5775 5773 5772 5772 5771 5770 5770 5769 5766 5764 5761 5758 5755 5753 5753 5756 5757 5758 5759 5758 5757 5754 5751 5748 5746 5744 5741 5740 5740 5739 5738 5737 5737
5786 5786 5787 5787 5793 5794 5783 5779 5797 5816 5814 5800 5793 5787 5780 5774 5769 5768 5767 5765 5765 5763 5763 5762 5759 5755 5751 5748 5746 5744 5745 5745 5745 5746 5748 5750 5750 5748 5744 5742 5739 5737 5734 5732 5733 5731 5728 5725 5727
5770 5785 5778 5773 5765 5763 5772 5755 5784 5802 5789 5783 5779 5776 5772 5769 5766 5764 5761 5758 5756 5754 5754 5752 5751 5748 5745 5741 5737 5734 5733 5733 5738 5740 5743 5744 5744 5741 5738 5735 5732 5729 5727 5725 5724 5724 5722 5718 5714
5772 5780 5771 5767 5760 5756 5766 5758 5778 5795 5770 5765 5765 5765 5765 5765 5762 5758 5755 5752 5749 5748 5745 5744 5742 5740 5739 5736 5733 5729 5728 5729 5731 5733 5734 5734 5735 5732 5729 5726 5724 5722 5719 5717 5715 5713 5712 5710 5706
5776 5768 5765 5769 5763 5743 5756 5749 5760 5767 5764 5759 5757 5756 5758 5762 5761 5757 5755 5752 5747 5744 5740 5738 5734 5732 5732 5731 5728 5725 5723 5722 5722 5722 5722 5723 5722 5721 5718 5715 5714 5712 5710 5708 5707 5705 5704 5702 5700
5765 5745 5733 5739 5747 5741 5748 5745 5759 5772 5779 5772 5762 5759 5760 5760 5757 5753 5749 5745 5741 5737 5735 5732 5728 5724 5722 5721 5719 5718 5716 5715 5715 5716 5715 5714 5711 5709 5707 5704 5702 5702 5701 5701 5700 5697 5696 5695 5694
5755 5746 5723 5711 5719 5737 5755 5758 5777 5782 5781 5775 5769 5764 5759 5755 5753 5749 5745 5741 5736 5732 5729 5725 5720 5715 5713 5711 5709 5709 5708 5708 5709 5710 5708 5705 5701 5699 5697 5693 5691 5691 5691 5692 5691 5690 5689 5688 5688
5750 5750 5758 5734 5729 5728 5748 5765 5770 5769 5763 5761 5759 5756 5752 5750 5747 5744 5741 5736 5730 5725 5720 5716 5710 5705 5703 5701 5699 5698 5697 5697 5699 5700 5699 5694 5689 5686 5684 5682 5680 5680 5680 5682 5682 5682 5681 5681 5681
5761 5755 5743 5726 5710 5707 5726 5741 5745 5745 5748 5751 5750 5748 5747 5746 5744 5740 5733 5726 5720 5715 5709 5704 5700 5696 5693 5691 5688 5687 5685 5685 5686 5687 5684 5679 5674 5671 5669 5669 5669 5668 5669 5672 5675 5676 5676 5675 5674
5754 5744 5740 5733 5725 5703 5698 5721 5761 5754 5754 5748 5746 5744 5740 5737 5734 5729 5723 5717 5711 5705 5699 5693 5691 5688 5685 5682 5679 5675 5673 5671 5671 5669 5666 5660 5656 5655 5656 5656 5658 5659 5662 5665 5669 5671 5671 5669 5668
5764 5752 5741 5718 5713 5715 5705 5717 5763 5757 5753 5748 5743 5739 5734 5730 5727 5723 5717 5710 5702 5696 5690 5685 5684 5682 5679 5675 5670 5666 5662 5659 5657 5653 5648 5644 5641 5641 5643 5645 5648 5652 5656 5659 5662 5664 5664 5663 5662